DGVMK EDWN-EDDG

Flight info

Callsign DGVMK
Flight time 0h 22m
Altitude 9000
Route DCT IBAGU DCT OSN/N0175F080
Aircraft BT36/L-BDFGLORY/S

Departure

Time 2026-04-21 14:08
Airport Flugplatz Nordhorn-Lingen (EDWN)

Arrival

Time 2026-04-21 14:31
Airport Münster Osnabrück Airport (EDDG)
Time Latitude Longitude Altitude Speed Heading
2026-04-21 13:55 52.45807 7.17458 92 ft 0 kts 323°
2026-04-21 14:04 52.45809 7.17453 92 ft 3 kts 289°
2026-04-21 14:04 52.45766 7.17476 94 ft 11 kts 142°
2026-04-21 14:04 52.45716 7.17544 92 ft 8 kts 150°
2026-04-21 14:05 52.45672 7.17586 90 ft 0 kts 144°
2026-04-21 14:05 52.45689 7.17621 91 ft 14 kts 32°
2026-04-21 14:05 52.45775 7.17698 92 ft 12 kts 342°
2026-04-21 14:06 52.45814 7.17657 92 ft 0 kts 265°
2026-04-21 14:07 52.45799 7.17662 95 ft 10 kts 129°
2026-04-21 14:07 52.45696 7.17613 91 ft 24 kts 208°
2026-04-21 14:07 52.45638 7.17716 77 ft 18 kts 53°
2026-04-21 14:08 52.45888 7.18311 168 ft 96 kts 57°
2026-04-21 14:08 52.46545 7.18650 528 ft 137 kts 322°
2026-04-21 14:08 52.46436 7.17061 708 ft 161 kts 230°
2026-04-21 14:08 52.45520 7.16964 485 ft 137 kts 109°
2026-04-21 14:09 52.45898 7.18214 232 ft 146 kts 45°
2026-04-21 14:09 52.45770 7.19493 570 ft 163 kts 172°
2026-04-21 14:09 52.44787 7.18420 716 ft 173 kts 220°
2026-04-21 14:09 52.44341 7.16884 738 ft 168 kts 312°
2026-04-21 14:10 52.45169 7.16755 485 ft 122 kts 61°
2026-04-21 14:10 52.45547 7.17794 77 ft 89 kts 56°
2026-04-21 14:10 52.45802 7.18394 70 ft 41 kts 56°
2026-04-21 14:10 52.45935 7.18712 77 ft 28 kts 54°
2026-04-21 14:11 52.46007 7.18739 77 ft 15 kts 237°
2026-04-21 14:11 52.45819 7.18297 73 ft 61 kts 235°
2026-04-21 14:11 52.45605 7.17796 72 ft 34 kts 235°
2026-04-21 14:11 52.45569 7.17710 71 ft 0 kts 234°
2026-04-21 14:12 52.45568 7.17708 71 ft 2 kts 233°
2026-04-21 14:12 52.45567 7.17707 71 ft 0 kts 233°
2026-04-21 14:14 52.45551 7.17709 74 ft 0 kts 148°
2026-04-21 14:15 52.45529 7.17736 74 ft 0 kts 102°
2026-04-21 14:15 52.45537 7.17759 75 ft 2 kts 52°
2026-04-21 14:15 52.45541 7.17768 75 ft 14 kts 56°
2026-04-21 14:15 52.45813 7.18415 96 ft 107 kts 54°
2026-04-21 14:16 52.46147 7.19604 535 ft 120 kts 105°
2026-04-21 14:16 52.45547 7.20771 899 ft 149 kts 138°
2026-04-21 14:16 52.44586 7.21576 1404 ft 159 kts 156°
2026-04-21 14:16 52.43461 7.21725 1935 ft 171 kts 180°
2026-04-21 14:17 52.42230 7.21514 2231 ft 186 kts 178°
2026-04-21 14:17 52.40896 7.21427 2377 ft 193 kts 178°
2026-04-21 14:17 52.39571 7.21338 2519 ft 187 kts 178°
2026-04-21 14:17 52.38288 7.21255 2617 ft 182 kts 179°
2026-04-21 14:18 52.37045 7.21167 2690 ft 176 kts 178°
2026-04-21 14:18 52.35835 7.21082 2796 ft 172 kts 178°
2026-04-21 14:18 52.34656 7.20998 2820 ft 168 kts 178°
2026-04-21 14:18 52.33493 7.20908 2848 ft 167 kts 178°
2026-04-21 14:19 52.32349 7.20824 2920 ft 167 kts 177°
2026-04-21 14:19 52.31186 7.20741 2962 ft 175 kts 178°
2026-04-21 14:19 52.29911 7.20667 3007 ft 189 kts 178°
2026-04-21 14:19 52.28581 7.20592 3008 ft 194 kts 178°
2026-04-21 14:20 52.27225 7.20515 3005 ft 195 kts 177°
2026-04-21 14:20 52.25871 7.20437 3005 ft 195 kts 178°
2026-04-21 14:20 52.24509 7.20353 3005 ft 196 kts 179°
2026-04-21 14:20 52.23144 7.20265 2994 ft 195 kts 178°
2026-04-21 14:21 52.21788 7.20174 2995 ft 195 kts 179°
2026-04-21 14:21 52.20424 7.20075 2999 ft 196 kts 178°
2026-04-21 14:21 52.19061 7.19970 2997 ft 196 kts 179°
2026-04-21 14:21 52.17702 7.19861 3000 ft 196 kts 179°
2026-04-21 14:22 52.16339 7.19749 3002 ft 196 kts 179°
2026-04-21 14:22 52.14974 7.19636 2996 ft 197 kts 179°
2026-04-21 14:22 52.13593 7.19523 2985 ft 197 kts 179°
2026-04-21 14:22 52.12313 7.20022 2985 ft 189 kts 146°
2026-04-21 14:23 52.11272 7.21248 2977 ft 186 kts 138°
2026-04-21 14:23 52.10248 7.22526 2982 ft 185 kts 137°
2026-04-21 14:23 52.09213 7.23794 2984 ft 187 kts 138°
2026-04-21 14:23 52.08175 7.25061 2979 ft 185 kts 138°
2026-04-21 14:24 52.07153 7.26318 2981 ft 184 kts 138°
2026-04-21 14:24 52.06132 7.27568 2980 ft 183 kts 139°
2026-04-21 14:24 52.05124 7.28829 2976 ft 182 kts 137°
2026-04-21 14:24 52.04118 7.30071 2975 ft 181 kts 138°
2026-04-21 14:25 52.03356 7.31600 2975 ft 173 kts 105°
2026-04-21 14:25 52.03432 7.33563 2991 ft 182 kts 68°
2026-04-21 14:25 52.03998 7.35410 2996 ft 187 kts 62°
2026-04-21 14:25 52.04623 7.37303 2983 ft 185 kts 61°
2026-04-21 14:26 52.05225 7.39108 2986 ft 180 kts 61°
2026-04-21 14:26 52.05814 7.40871 2994 ft 176 kts 61°
2026-04-21 14:26 52.06394 7.42595 2988 ft 177 kts 61°
2026-04-21 14:26 52.06974 7.44337 2992 ft 173 kts 61°
2026-04-21 14:27 52.07548 7.46073 2919 ft 176 kts 61°
2026-04-21 14:27 52.08142 7.47880 2801 ft 185 kts 62°
2026-04-21 14:27 52.08737 7.49692 2653 ft 178 kts 60°
2026-04-21 14:27 52.09443 7.51415 2523 ft 187 kts 54°
2026-04-21 14:28 52.10205 7.53134 2403 ft 174 kts 55°
2026-04-21 14:28 52.10617 7.54684 2222 ft 132 kts 72°
2026-04-21 14:28 52.10879 7.56158 1981 ft 141 kts 72°
2026-04-21 14:28 52.11163 7.57715 1716 ft 139 kts 71°
2026-04-21 14:29 52.11410 7.59096 1432 ft 122 kts 71°
2026-04-21 14:29 52.11665 7.60394 1164 ft 111 kts 67°
2026-04-21 14:29 52.11968 7.61541 961 ft 114 kts 63°
2026-04-21 14:29 52.12235 7.62714 841 ft 101 kts 67°
2026-04-21 14:30 52.12457 7.63727 638 ft 89 kts 66°
2026-04-21 14:30 52.12656 7.64691 502 ft 89 kts 66°
2026-04-21 14:30 52.12867 7.65638 375 ft 89 kts 66°
2026-04-21 14:30 52.13060 7.66563 249 ft 85 kts 66°
2026-04-21 14:31 52.13250 7.67468 160 ft 79 kts 67°
2026-04-21 14:31 52.13385 7.68104 162 ft 36 kts 70°
2026-04-21 14:31 52.13304 7.68300 162 ft 22 kts 155°
2026-04-21 14:31 52.13189 7.68305 162 ft 15 kts 244°
2026-04-21 14:32 52.13157 7.68236 162 ft 2 kts 272°